Location: Oshawa
(43.9000°N, 78.8670°W)
Time: 02:44:08
(UTC-04:00)

Cosmos 1821 Rocket - Visible Passes

Search period start: 25 July 2014 00:00
Search period end: 04 August 2014 00:00
Orbit: 945 x 1006 km, 82.9° (Epoch: 23 July)

Date Brightness Start Highest point End Pass type
(mag) Time Alt. Az. Time Alt. Az. Time Alt. Az.
25 Jul 5.2 00:57:53 10° NNW 01:03:10 30° W 01:04:53 26° WSW visible
25 Jul 5.9 21:54:28 10° NE 21:57:06 13° ENE 21:59:44 10° E visible
25 Jul 3.9 23:37:18 10° N 23:43:34 77° E 23:45:32 47° SSE visible
26 Jul 5.9 01:24:25 10° NW 01:28:10 17° W 01:30:11 15° WSW visible
26 Jul 5.4 22:18:18 10° NNE 22:23:05 23° ENE 22:26:11 16° ESE visible
27 Jul 4.3 00:02:48 10° NNW 00:08:57 62° W 00:10:51 43° SSW visible
27 Jul 4.7 22:43:04 10° N 22:48:52 38° ENE 22:51:31 27° ESE visible
28 Jul 5.1 00:28:36 10° NNW 00:34:10 35° W 00:36:11 28° WSW visible
28 Jul 6.0 21:26:20 10° NE 21:27:50 11° ENE 21:29:19 10° ENE visible
28 Jul 4.0 23:08:13 10° N 23:14:28 67° E 23:16:52 39° SSE visible
29 Jul 5.8 00:54:55 10° NW 00:59:13 20° W 01:01:32 16° WSW visible
29 Jul 5.5 21:49:27 10° NNE 21:53:53 20° ENE 21:57:34 12° ESE visible
29 Jul 4.1 23:33:39 10° NNW 23:39:53 71° W 23:42:14 40° SSW visible
30 Jul 6.4 01:23:22 10° WNW 01:24:05 10° WNW 01:24:49 10° W visible
30 Jul 4.9 22:14:05 10° N 22:19:43 34° ENE 22:22:57 21° ESE visible
30 Jul 4.9 23:59:22 10° NNW 00:05:09 40° W 00:07:37 29° SW visible
31 Jul 4.2 22:39:09 10° N 22:45:21 58° ENE 22:48:21 31° SE visible
01 Aug 5.7 00:25:30 10° NW 00:30:15 23° W 00:33:01 17° WSW visible
01 Aug 5.7 21:20:41 10° NNE 21:24:39 17° ENE 21:28:38 10° ESE visible
01 Aug 4.0 23:04:31 10° N 23:10:49 82° W 23:13:46 35° S visible
02 Aug 6.3 00:52:43 10° NW 00:55:10 12° WNW 00:57:37 10° W visible
02 Aug 5.0 21:45:08 10° NNE 21:50:33 29° ENE 21:54:31 16° ESE visible
02 Aug 4.8 23:30:09 10° NNW 23:36:07 47° W 23:39:12 27° SSW visible
03 Aug 4.3 22:10:07 10° N 22:16:14 50° ENE 22:19:58 24° SE visible
03 Aug 5.9 23:56:09 10° NNW 00:00:00 25° WNW 00:00:00 25° WNW visible
